Location: Nairn
(57.5833°N, 3.8667°W)
Time: 03:26:23
(UTC+00:00)

Cosmos 1680 Rocket - Pass Details

Date: 07 August 2020
Orbit: 760 x 781 km, 74.1° (Epoch: 27 September)

Event Time Altitude Azimuth Distance (km) Brightness Sun altitude
Rises 02:07:01 0° 329° (NNW) 3,253 7.2 -12.9°
Reaches altitude 10° 02:09:25 10° 329° (NNW) 2,320 6.4 -12.8°
Maximum altitude 02:14:41 85° 243° (WSW) 775 3.5 -12.4°
Drops below altitude 10° 02:19:54 10° 155° (SSE) 2,295 5.6 -12.1°
Sets 02:22:15 0° 155° (SSE) 3,215 6.4 -12.0°
